Alexandria, LA

3:13 AM CDT on April 23, 2017 (GMT -0500)
Alexandria International

Weather History for KAEX - January, 2003

Change the Weather History Date:

Tuesday, January 28, 2003

  Actual Average Record
Temperature  
Mean Temperature 52 °F 49 °F  
Max Temperature 64 °F 60 °F 82 °F (1957)
Min Temperature 41 °F 38 °F 17 °F (1897)
Degree Days  
Heating Degree Days 12 16  
Month to date heating degree days 448  
Since 1 July heating degree days 1237  
Growing Degree Days 2 (Base 50)    
Moisture  
Dew Point 51 °F    
Average Humidity 85    
Maximum Humidity 94    
Minimum Humidity 73    
Precipitation  
Precipitation 0.00 in 0.20 in 3.47 in (1994)
Month to date precipitation 4.59  
Year to date precipitation 4.59  
Snow  
Snow 0.00 in - 1.50 in (2014)
Month to date snowfall  
Since 1 July snowfall  
Snow Depth -    
Sea Level Pressure  
Sea Level Pressure 30.19 in    
Wind  
Wind Speed 8 mph (SSE)    
Max Wind Speed 13 mph    
Max Gust Speed 16 mph    
Visibility 9 miles    
Events Rain    
T = Trace of Precipitation, MM = Missing Value Source: NWS Daily Summary

Daily Weather History Graph

Daily Weather History Graph

Search for Another Location

Airport or City:

Trip Planner

Search our weather history database for the weather conditions in past years. The results will help you decide how hot, cold, wet, or windy it might be!

Date:

Astronomy

Jan. 28, 2003 Rise Set
Actual Time 7:05 AM CST 5:41 PM CST
Civil Twilight 6:39 AM CST 6:07 PM CST
Nautical Twilight 6:10 AM CST 6:36 PM CST
Astronomical Twilight 5:41 AM CST 7:05 PM CST
Moon 3:49 AM CST (1/28) 2:04 PM CST (1/28)
Length of Visible Light 11h 27m
Length of Day
10h 36m
Waning Crescent, 15% of the Moon is Illuminated
Jan 28
Waning Crescent
Feb 1
New
Feb 9
First Quarter
Feb 16
Full
Feb 23
Last Quarter

Hourly Weather History & Observations

Time (CST) Temp. Windchill Dew Point Humidity Pressure Visibility Wind Dir Wind Speed Gust Speed Precip Events Conditions
12:53 AM 45.0 °F 43.5 °F 42.1 °F 90% 30.30 in 8.0 mi SSE 3.5 mph - N/A   Overcast
1:53 AM 44.1 °F 40.1 °F 39.9 °F 85% 30.29 in 10.0 mi SSE 6.9 mph - N/A   Scattered Clouds
2:53 AM 43.0 °F 39.5 °F 37.9 °F 82% 30.27 in 10.0 mi SSE 5.8 mph - N/A   Clear
3:53 AM 41.0 °F 38.0 °F 37.9 °F 89% 30.26 in 10.0 mi SSE 4.6 mph - N/A   Mostly Cloudy
4:53 AM 45.0 °F 41.2 °F 41.0 °F 86% 30.25 in 10.0 mi SE 6.9 mph - N/A   Overcast
5:11 AM 44.6 °F 40.7 °F 41.0 °F 87% 30.24 in 10.0 mi SE 6.9 mph - N/A   Overcast
5:24 AM 44.6 °F 40.2 °F 41.0 °F 87% 30.24 in 10.0 mi SE 8.1 mph - N/A   Overcast
5:53 AM 46.0 °F 41.4 °F 42.1 °F 86% 30.27 in 10.0 mi SE 9.2 mph - N/A   Overcast
6:07 AM 46.4 °F 42.4 °F 42.8 °F 87% 30.25 in 10.0 mi SE 8.1 mph - N/A   Overcast
6:53 AM 46.9 °F - 43.0 °F 86% 30.27 in 10.0 mi SE 10.4 mph - N/A   Overcast
7:53 AM 48.0 °F - 44.1 °F 86% 30.26 in 8.0 mi SE 10.4 mph - N/A   Overcast
8:53 AM 48.9 °F - 45.0 °F 86% 30.27 in 9.0 mi SE 12.7 mph - N/A   Overcast
9:25 AM 50.0 °F - 46.4 °F 87% 30.25 in 8.0 mi SE 11.5 mph - N/A   Overcast
9:53 AM 51.1 °F - 46.9 °F 86% 30.27 in 9.0 mi SSE 12.7 mph - N/A   Overcast
10:53 AM 54.0 °F - 50.0 °F 86% 30.26 in 10.0 mi SE 11.5 mph - N/A   Overcast
11:53 AM 57.0 °F - 51.1 °F 81% 30.22 in 10.0 mi SE 10.4 mph - N/A   Overcast
12:53 PM 61.0 °F - 54.0 °F 78% 30.19 in 10.0 mi SE 9.2 mph - N/A   Overcast
1:20 PM 62.6 °F - 55.4 °F 77% 30.16 in 10.0 mi SSE 8.1 mph - N/A   Overcast
1:53 PM 64.9 °F - 55.9 °F 73% 30.16 in 10.0 mi SSE 9.2 mph - N/A   Overcast
2:53 PM 64.9 °F - 57.0 °F 75% 30.14 in 9.0 mi South 8.1 mph - N/A   Overcast
3:53 PM 64.9 °F - 57.9 °F 78% 30.12 in 10.0 mi South 10.4 mph - N/A   Overcast
4:53 PM 64.9 °F - 57.9 °F 78% 30.13 in 10.0 mi South 11.5 mph 16.1 mph N/A   Overcast
5:19 PM 64.4 °F - 59.0 °F 83% 30.11 in 1.8 mi South 11.5 mph - N/A   Haze
5:29 PM 64.4 °F - 59.0 °F 83% 30.11 in 4.0 mi South 12.7 mph - N/A   Haze
5:53 PM 63.0 °F - 60.1 °F 90% 30.13 in 4.0 mi South 8.1 mph - N/A   Overcast
6:27 PM 62.6 °F - 59.0 °F 88% 30.11 in 10.0 mi South 6.9 mph - N/A   Overcast
6:53 PM 64.0 °F - 59.0 °F 84% 30.12 in 10.0 mi South 10.4 mph - N/A   Overcast
7:53 PM 63.0 °F - 59.0 °F 87% 30.12 in 10.0 mi SSE 11.5 mph - N/A   Overcast
8:53 PM 63.0 °F - 60.1 °F 90% 30.12 in 10.0 mi SSE 11.5 mph - N/A   Overcast
9:53 PM 62.1 °F - 60.1 °F 93% 30.13 in 10.0 mi SSE 9.2 mph - N/A   Overcast
10:53 PM 63.0 °F - 60.1 °F 90% 30.14 in 10.0 mi South 9.2 mph - N/A   Overcast
11:42 PM 62.6 °F - 60.8 °F 94% 30.12 in 10.0 mi South 5.8 mph - N/A   Overcast
11:53 PM 62.1 °F - 60.1 °F 93% 30.13 in 10.0 mi SSE 6.9 mph - 0.00 in Rain Light Rain